Location: Abraham Lincoln Continuation High School
(33.9711°N, 117.3662°W)
Time: 04:03:31
(UTC+00:00)

IDEFIX/ARIANE 42P - Pass Details

Date: 21 September 2020
Orbit: 786 x 802 km, 98.4° (Epoch: 25 October)

Event Time Altitude Azimuth Distance (km) Brightness Sun altitude
Rises 10:55:34 0° 11° (N) 3,318 6.3 -33.2°
Reaches altitude 10° 10:57:54 10° 11° (N) 2,384 5.4 -32.8°
Enters shadow 11:00:50 34° 8° (N) 1,289 3.8 -32.2°
